Seattle, WA
on Saturday, January 19, 2013

Saturday
Previous Day Next Day
Daily Summary
 ActualAverageRecord
Temperature
Mean Temperature °F 42°F  
Max Temperature 34°F 48°F 62°F (2005)
Min Temperature 31°F 37°F 18°F (1954)
Degree Days
Heating Degree Days 32 23  
Month to date heating degree days 532 445  
Since 1 July heating degree days 2283 2383  
Cooling Degree Days 0 0  
Month to date cooling degree days 0 0  
Year to date cooling degree days 0 0  
Moisture
Dew Point 31°F   
Average Humidity 93    
Maximum Humidity 100    
Minimum Humidity 85    
Precipitation
Precipitation 0.00 in 0.18 in 2.26 in (1967)
Month to date precipitation 2.71 3.59  
Year to date precipitation 2.71 3.59  
Snow
Snow 0.00 in in 3.50 in (1996)
Month to date snowfall T  
Since 1 July snowfall 0.6  
Snow Depth 0.00 in   
Wind
Wind Speed 4 mph   
Max Wind Speed 10 mph   
Max Gust Speed 13 mph   

Key: T is trace of precipitation, MM is missing value
Source: NWS Daily Summary
Time(PST)TemperatureDew PointHumidity Pressure Visibility Wind DirectionWind SpeedGust SpeedPrecipitationEvents Conditions
12:53 AM 32.0°F 30.0°F 92% 30.37 in 0.2 miles NNE 5.8 mph - N/A Fog Fog
1:53 AM 30.9°F 28.9°F 92% 30.37 in 0.2 miles North 4.6 mph - N/A Fog Light Freezing Fog
2:53 AM 32.0°F 28.9°F 88% 30.38 in 0.2 miles NNE 8.1 mph - N/A Fog Fog
3:53 AM 30.9°F 30.0°F 96% 30.38 in 0.2 miles NNE 5.8 mph - N/A Fog Light Freezing Fog
4:53 AM 32.0°F 30.0°F 92% 30.38 in 0.2 miles ENE 5.8 mph - N/A Fog Fog
5:53 AM 32.0°F 30.0°F 92% 30.38 in 0.2 miles NE 6.9 mph - N/A Fog Fog
6:53 AM 32.0°F 30.0°F 92% 30.38 in 0.2 miles NE 6.9 mph - N/A Fog Fog
7:27 AM 32.0°F 30.2°F 93% 30.34 in 0.2 miles NNE 4.6 mph - N/A Fog Fog
7:37 AM 32.0°F 30.2°F 93% 30.35 in 0.2 miles NNE 3.5 mph - N/A Fog Fog
7:53 AM 32.0°F 30.0°F 92% 30.39 in 0.2 miles NNE 5.8 mph - N/A Fog Fog
8:12 AM 32.0°F 30.2°F 93% 30.35 in 0.1 miles NE 4.6 mph - N/A Fog Fog
8:53 AM 32.0°F 30.0°F 92% 30.40 in 0.1 miles NNE 5.8 mph - N/A Fog Fog
9:37 AM 32.0°F 30.2°F 93% 30.37 in 0.2 miles NNE 4.6 mph - N/A Fog Fog
9:53 AM 32.0°F 30.0°F 92% 30.41 in 0.1 miles North 4.6 mph - N/A Fog Fog
10:07 AM 32.0°F 30.2°F 93% 30.38 in 0.1 miles North 4.6 mph - N/A Fog Fog
10:35 AM 32.0°F 30.2°F 93% 30.37 in 0.1 miles North 3.5 mph - N/A Fog Fog
10:53 AM 32.0°F 30.0°F 92% 30.41 in 0.1 miles North 4.6 mph - N/A Fog Fog
11:53 AM 32.0°F 30.9°F 96% 30.39 in 0.1 miles Calm Calm - N/A Fog Fog
12:53 PM 32.0°F 32.0°F 100% 30.38 in 0.2 miles Calm Calm - N/A Fog Fog
1:01 PM 33.8°F 32.0°F 93% 30.34 in 0.5 miles Calm Calm - N/A Fog Fog
1:53 PM 33.1°F 32.0°F 96% 30.37 in 0.5 miles Calm Calm - N/A Fog Fog
2:13 PM 33.8°F 32.0°F 93% 30.33 in 0.2 miles North 4.6 mph - N/A   Overcast
2:53 PM 34.0°F 33.1°F 96% 30.37 in 0.2 miles NE 3.5 mph - N/A   Overcast
3:48 PM 33.8°F 32.0°F 93% 30.34 in 0.1 miles Calm Calm - N/A   Overcast
3:53 PM 34.0°F 32.0°F 92% 30.37 in 0.1 miles NE 4.6 mph - N/A   Overcast
4:53 PM 34.0°F 32.0°F 92% 30.37 in 0.1 miles NNE 4.6 mph - N/A Fog Fog
5:53 PM 33.1°F 32.0°F 96% 30.38 in 0.1 miles North 4.6 mph - N/A Fog Fog
6:53 PM 33.1°F 32.0°F 96% 30.38 in 0.1 miles North 4.6 mph - N/A Fog Fog
7:00 PM 33.8°F 32.0°F 93% 30.35 in 0.1 miles NNE 5.8 mph - N/A Fog Fog
7:48 PM 33.8°F 32.0°F 93% 30.36 in 0.1 miles North 4.6 mph - N/A Fog Fog
7:53 PM 33.1°F 32.0°F 96% 30.40 in 0.1 miles North 4.6 mph - N/A Fog Fog
8:05 PM 32.0°F 30.2°F 93% 30.36 in 0.1 miles North 5.8 mph - N/A Fog Fog
8:27 PM 32.0°F 30.2°F 93% 30.36 in 0.1 miles NNE 5.8 mph - N/A Fog Fog
8:35 PM 33.8°F 30.2°F 87% 30.36 in 0.1 miles NE 5.8 mph - N/A Fog Fog
8:46 PM 33.8°F 30.2°F 87% 30.36 in 0.1 miles NE 4.6 mph - N/A Fog Fog
8:53 PM 32.0°F 30.9°F 96% 30.40 in 0.1 miles NE 4.6 mph - N/A Fog Fog
9:53 PM 32.0°F 32.0°F 100% 30.40 in 0.1 miles Calm Calm - N/A Fog Fog
10:28 PM 33.8°F 32.0°F 93% 30.37 in 0.1 miles Calm Calm - N/A Fog Fog
10:53 PM 33.1°F 32.0°F 96% 30.40 in 0.1 miles Calm Calm - N/A Fog Fog
11:53 PM 33.1°F 32.0°F 96% 30.40 in 0.1 miles ENE 5.8 mph - N/A Fog Fog
Moon Phase
Jan. 19 Jan. 26 Feb. 03 Feb. 10 Feb. 17
Sunrise:07:48 AM (PST) Moon Rise:11:25 AM (PST)1/19
Sunset:04:51 PM (PST) Moon Set:01:22 AM (PST)1/19

Copyright © 2014 The Weather Underground, Inc.